Location: Newark
(46.7636°N, 1.8358°W)
Time: 12:07:11
(UTC+00:00)

Tiros 1 - Pass Details

Date: 27 October 2019
Orbit: 630 x 664 km, 48.4° (Epoch: 17 November)

Event Time Altitude Azimuth Distance (km) Brightness Sun altitude
Exits shadow 04:46:55 41° 232° (SW) 959 7.6 -20.2°
Maximum altitude 04:47:31 43° 211° (SSW) 927 7.7 -20.1°
Drops below altitude 10° 04:52:03 10° 140° (SE) 2,076 10.2 -19.3°
Sets 04:54:29 0° 134° (SE) 2,985 11.2 -18.9°
